Retour au catalogue

THORAD AGENA D DEB

ActifPO
NORAD 4767·DEBRIS·🇺🇸 United States

Lancé Apr 8, 1970 depuis Vandenberg Space Force Base

Loading…

Prochains Passages (prochaines 24 heures)

TLE

FraisSource: Space-Track

Époque: Sep 14, 2026, 05:58 UTC

1 04767U 70025DM  26257.24882897  .00000238  00000-0  30462-3 0  9999
2 04767  99.9276   3.3636 0051817  10.8627  18.7225 13.73446511814402

Suivez THORAD AGENA D DEB en temps réel avec AllMySat

Download on the App Store